,,,PA_Meas_PMT16A,,PR_Meas_QMR101_102,,RH_Meas_QMH101,,SR_Meas_QMS101,,TA_Meas_QMH101,,GenWind,,GenWind,
date,time,status,PA,status,PR,status,RH,status,SR,status,TA,status,DirAvg,status,SpdAvg,
2012-08-15, 00:00:05,VALID,1009.59,VALID,0,VALID,104,VALID,0,VALID,23.6922,VALID,57,VALID,0,
2012-08-15, 00:01:05,VALID,1009.56,VALID,0,VALID,104,VALID,0.112112,VALID,23.694,VALID,57,VALID,0,
2012-08-15, 00:02:05,VALID,1009.53,VALID,0,VALID,104,VALID,0.112112,VALID,23.6338,VALID,57,VALID,0,
2012-08-15, 00:03:05,VALID,1009.52,VALID,0,VALID,104,VALID,0,VALID,23.6143,VALID,57,VALID,0,
2012-08-15, 00:04:05,VALID,1009.5,VALID,0,VALID,104,VALID,0.112112,VALID,23.6143,VALID,57,VALID,0,
2012-08-15, 00:05:05,VALID,1009.49,VALID,0,VALID,104,VALID,0.112112,VALID,23.5948,VALID,57,VALID,0,
2012-08-15, 00:06:05,VALID,1009.46,VALID,0,VALID,104,VALID,0,VALID,23.5948,VALID,57,VALID,0,
2012-08-15, 00:07:05,VALID,1009.47,VALID,0,VALID,104,VALID,0.112112,VALID,23.5558,VALID,57,VALID,0,
2012-08-15, 00:08:05,VALID,1009.45,VALID,0,VALID,104,VALID,0.112112,VALID,23.5558,VALID,57,VALID,0,
2012-08-15, 00:09:05,VALID,1009.4,VALID,0,VALID,104,VALID,0,VALID,23.5363,VALID,57,VALID,0,
2012-08-15, 00:10:05,VALID,1009.39,VALID,0,VALID,104,VALID,0,VALID,23.5558,VALID,57,VALID,0,
2012-08-15, 00:11:05,VALID,1009.4,VALID,0,VALID,104,VALID,0.112112,VALID,23.5169,VALID,57,VALID,0,
2012-08-15, 00:12:05,VALID,1009.37,VALID,0,VALID,104,VALID,0.112112,VALID,23.5169,VALID,57,VALID,0,
2012-08-15, 00:13:05,VALID,1009.39,VALID,0,VALID,104,VALID,0.112112,VALID,23.4974,VALID,57,VALID,0,
2012-08-15, 00:14:05,VALID,1009.36,VALID,0,VALID,104,VALID,0,VALID,23.4779,VALID,57,VALID,0,
2012-08-15, 00:15:05,VALID,1009.37,VALID,0,VALID,104,VALID,0,VALID,23.4602,VALID,57,VALID,0,
2012-08-15, 00:16:05,VALID,1009.35,VALID,0,VALID,104,VALID,0,VALID,23.4407,VALID,57,VALID,0,
2012-08-15, 00:17:05,VALID,1009.35,VALID,0,VALID,104,VALID,0,VALID,23.4407,VALID,57,VALID,0,
2012-08-15, 00:18:05,VALID,1009.35,VALID,0,VALID,104,VALID,0,VALID,23.4407,VALID,57,VALID,0,
2012-08-15, 00:19:05,VALID,1009.35,VALID,0,VALID,104,VALID,0,VALID,23.4212,VALID,57,VALID,0,
2012-08-15, 00:20:05,VALID,1009.33,VALID,0,VALID,104,VALID,0,VALID,23.4425,VALID,57,VALID,0,
2012-08-15, 00:21:05,VALID,1009.3,VALID,0,VALID,104,VALID,0,VALID,23.4017,VALID,57,VALID,0,
2012-08-15, 00:22:05,VALID,1009.32,VALID,0,VALID,104,VALID,0,VALID,23.4017,VALID,57,VALID,0,
2012-08-15, 00:23:05,VALID,1009.3,VALID,0,VALID,104,VALID,0,VALID,23.3628,VALID,57,VALID,0,
2012-08-15, 00:24:05,VALID,1009.28,VALID,0,VALID,104,VALID,0,VALID,23.3628,VALID,57,VALID,0,
2012-08-15, 00:25:05,VALID,1009.28,VALID,0,VALID,104,VALID,0,VALID,23.384,VALID,57,VALID,0,
2012-08-15, 00:26:05,VALID,1009.27,VALID,0,VALID,104,VALID,0,VALID,23.3645,VALID,57,VALID,0,
2012-08-15, 00:27:05,VALID,1009.28,VALID,0,VALID,104,VALID,0,VALID,23.3238,VALID,57,VALID,0,
2012-08-15, 00:28:05,VALID,1009.29,VALID,0,VALID,104,VALID,0,VALID,23.3043,VALID,57,VALID,0,
2012-08-15, 00:29:05,VALID,1009.26,VALID,0,VALID,104,VALID,0,VALID,23.3061,VALID,57,VALID,0,
2012-08-15, 00:30:05,VALID,1009.23,VALID,0,VALID,104,VALID,0,VALID,23.2441,VALID,57,VALID,0,
2012-08-15, 00:31:05,VALID,1009.24,VALID,0,VALID,104,VALID,0,VALID,23.2654,VALID,57,VALID,0,
2012-08-15, 00:32:05,VALID,1009.22,VALID,0,VALID,104,VALID,0.112112,VALID,23.2246,VALID,57,VALID,0,
2012-08-15, 00:33:05,VALID,1009.19,VALID,0,VALID,104,VALID,0.112112,VALID,23.2051,VALID,57,VALID,0,
2012-08-15, 00:34:05,VALID,1009.19,VALID,0,VALID,104,VALID,0.112112,VALID,23.2264,VALID,57,VALID,0,
2012-08-15, 00:35:05,VALID,1009.16,VALID,0,VALID,104,VALID,0,VALID,23.1857,VALID,57,VALID,0,
2012-08-15, 00:36:05,VALID,1009.15,VALID,0,VALID,104,VALID,0.112112,VALID,23.1662,VALID,57,VALID,0,
2012-08-15, 00:37:05,VALID,1009.15,VALID,0,VALID,104,VALID,0.112112,VALID,23.1467,VALID,57,VALID,0,
2012-08-15, 00:38:05,VALID,1009.14,VALID,0,VALID,104,VALID,0,VALID,23.1272,VALID,57,VALID,0,
2012-08-15, 00:39:05,VALID,1009.13,VALID,0,VALID,104,VALID,0.112112,VALID,23.1077,VALID,57,VALID,0,
2012-08-15, 00:40:05,VALID,1009.13,VALID,0,VALID,104,VALID,0.112112,VALID,23.0883,VALID,57,VALID,0,
2012-08-15, 00:41:05,VALID,1009.11,VALID,0,VALID,104,VALID,0.112112,VALID,23.0688,VALID,57,VALID,0,
2012-08-15, 00:42:05,VALID,1009.09,VALID,0,VALID,104,VALID,0.112112,VALID,23.0493,VALID,57,VALID,0,
2012-08-15, 00:43:05,VALID,1009.09,VALID,0,VALID,104,VALID,0,VALID,23.0298,VALID,57,VALID,0,
2012-08-15, 00:44:05,VALID,1009.09,VALID,0,VALID,104,VALID,0.112112,VALID,23.0298,VALID,57,VALID,0,
2012-08-15, 00:45:05,VALID,1009.07,VALID,0,VALID,104,VALID,0,VALID,22.9926,VALID,57,VALID,0,
2012-08-15, 00:46:05,VALID,1009.04,VALID,0,VALID,104,VALID,0,VALID,22.9536,VALID,57,VALID,0,
2012-08-15, 00:47:05,VALID,1009.02,VALID,0,VALID,104,VALID,0,VALID,22.9749,VALID,57,VALID,0,
2012-08-15, 00:48:05,VALID,1009.02,VALID,0,VALID,104,VALID,0,VALID,22.9342,VALID,57,VALID,0,
2012-08-15, 00:49:05,VALID,1009,VALID,0,VALID,104,VALID,0,VALID,22.9342,VALID,57,VALID,0,
2012-08-15, 00:50:05,VALID,1008.99,VALID,0,VALID,104,VALID,0,VALID,22.9359,VALID,57,VALID,0,
2012-08-15, 00:51:05,VALID,1008.99,VALID,0,VALID,104,VALID,0,VALID,22.8952,VALID,57,VALID,0,
2012-08-15, 00:52:05,VALID,1008.97,VALID,0,VALID,104,VALID,0,VALID,22.8952,VALID,57,VALID,0,
2012-08-15, 00:53:05,VALID,1008.97,VALID,0,VALID,104,VALID,0,VALID,22.8952,VALID,57,VALID,0,
2012-08-15, 00:54:05,VALID,1009,VALID,0,VALID,104,VALID,0,VALID,22.8562,VALID,57,VALID,0,
2012-08-15, 00:55:05,VALID,1008.96,VALID,0,VALID,104,VALID,0,VALID,22.8562,VALID,57,VALID,0,
2012-08-15, 00:56:05,VALID,1008.99,VALID,0,VALID,104,VALID,0,VALID,22.8368,VALID,57,VALID,0,
2012-08-15, 00:57:05,VALID,1009.02,VALID,0,VALID,104,VALID,0,VALID,22.8385,VALID,57,VALID,0,
2012-08-15, 00:58:05,VALID,1009.04,VALID,0,VALID,104,VALID,0,VALID,22.8173,VALID,57,VALID,0,
2012-08-15, 00:59:05,VALID,1009.03,VALID,0,VALID,104,VALID,0,VALID,22.8173,VALID,57,VALID,0,
2012-08-15, 01:00:05,VALID,1009.03,VALID,0,VALID,104,VALID,0.112112,VALID,22.8173,VALID,57,VALID,0,
2012-08-15, 01:01:05,VALID,1009.03,VALID,0,VALID,104,VALID,0,VALID,22.7766,VALID,57,VALID,0,
2012-08-15, 01:02:05,VALID,1009,VALID,0,VALID,104,VALID,0.112112,VALID,22.7783,VALID,57,VALID,0,
2012-08-15, 01:03:05,VALID,1009.01,VALID,0,VALID,104,VALID,0.112112,VALID,22.7571,VALID,57,VALID,0,
2012-08-15, 01:04:05,VALID,1008.97,VALID,0,VALID,104,VALID,0.112112,VALID,22.7182,VALID,57,VALID,0,
2012-08-15, 01:05:05,VALID,1008.98,VALID,0,VALID,104,VALID,0,VALID,22.7182,VALID,57,VALID,0,
2012-08-15, 01:06:05,VALID,1008.95,VALID,0,VALID,104,VALID,0.112112,VALID,22.7182,VALID,57,VALID,0,
2012-08-15, 01:07:05,VALID,1008.95,VALID,0,VALID,104,VALID,0.112112,VALID,22.7394,VALID,57,VALID,0,
2012-08-15, 01:08:05,VALID,1008.95,VALID,0,VALID,104,VALID,0,VALID,22.7182,VALID,57,VALID,0,
2012-08-15, 01:09:05,VALID,1008.94,VALID,0,VALID,104,VALID,0.112112,VALID,22.7394,VALID,57,VALID,0,
2012-08-15, 01:10:05,VALID,1008.96,VALID,0,VALID,104,VALID,0,VALID,22.7394,VALID,57,VALID,0,
2012-08-15, 01:11:05,VALID,1008.92,VALID,0,VALID,104,VALID,0,VALID,22.7182,VALID,57,VALID,0,
2012-08-15, 01:12:05,VALID,1008.92,VALID,0,VALID,104,VALID,0.112112,VALID,22.6987,VALID,57,VALID,0,
2012-08-15, 01:13:05,VALID,1008.92,VALID,0,VALID,104,VALID,0.112112,VALID,22.6792,VALID,57,VALID,0,
2012-08-15, 01:14:05,VALID,1008.9,VALID,0,VALID,104,VALID,0,VALID,22.6792,VALID,57,VALID,0,
2012-08-15, 01:15:05,VALID,1008.9,VALID,0,VALID,104,VALID,0,VALID,22.6809,VALID,57,VALID,0,
2012-08-15, 01:16:05,VALID,1008.89,VALID,0,VALID,104,VALID,0,VALID,22.6614,VALID,57,VALID,0,
2012-08-15, 01:17:05,VALID,1008.9,VALID,0,VALID,104,VALID,0,VALID,22.6614,VALID,57,VALID,0,
2012-08-15, 01:18:05,VALID,1008.89,VALID,0,VALID,104,VALID,0,VALID,22.642,VALID,57,VALID,0,
2012-08-15, 01:19:05,VALID,1008.87,VALID,0,VALID,104,VALID,0,VALID,22.6225,VALID,57,VALID,0,
2012-08-15, 01:20:05,VALID,1008.83,VALID,0,VALID,104,VALID,0,VALID,22.6013,VALID,57,VALID,0,
2012-08-15, 01:21:05,VALID,1008.83,VALID,0,VALID,104,VALID,0,VALID,22.603,VALID,57,VALID,0,
2012-08-15, 01:22:05,VALID,1008.8,VALID,0,VALID,104,VALID,0,VALID,22.603,VALID,57,VALID,0,
2012-08-15, 01:23:05,VALID,1008.81,VALID,0,VALID,104,VALID,0,VALID,22.603,VALID,57,VALID,0,
2012-08-15, 01:24:05,VALID,1008.79,VALID,0,VALID,104,VALID,0,VALID,22.6047,VALID,57,VALID,0,
2012-08-15, 01:25:05,VALID,1008.79,VALID,0,VALID,104,VALID,0,VALID,22.564,VALID,57,VALID,0,
2012-08-15, 01:26:05,VALID,1008.8,VALID,0,VALID,104,VALID,0,VALID,22.564,VALID,57,VALID,0,
2012-08-15, 01:27:05,VALID,1008.77,VALID,0,VALID,104,VALID,0,VALID,22.5658,VALID,57,VALID,0,
2012-08-15, 01:28:05,VALID,1008.76,VALID,0,VALID,104,VALID,0,VALID,22.5446,VALID,57,VALID,0,
2012-08-15, 01:29:05,VALID,1008.75,VALID,0,VALID,104,VALID,0,VALID,22.5251,VALID,57,VALID,0,
2012-08-15, 01:30:05,VALID,1008.75,VALID,0,VALID,104,VALID,0,VALID,22.5251,VALID,57,VALID,0,
2012-08-15, 01:31:05,VALID,1008.74,VALID,0,VALID,104,VALID,0,VALID,22.5251,VALID,57,VALID,0,
2012-08-15, 01:32:05,VALID,1008.72,VALID,0,VALID,104,VALID,0,VALID,22.5251,VALID,57,VALID,0,
2012-08-15, 01:33:05,VALID,1008.71,VALID,0,VALID,104,VALID,0,VALID,22.5251,VALID,57,VALID,0,
2012-08-15, 01:34:05,VALID,1008.72,VALID,0,VALID,104,VALID,0,VALID,22.5056,VALID,57,VALID,0,
2012-08-15, 01:35:05,VALID,1008.7,VALID,0,VALID,104,VALID,0,VALID,22.4667,VALID,57,VALID,0,
2012-08-15, 01:36:05,VALID,1008.72,VALID,0,VALID,104,VALID,0,VALID,22.4667,VALID,57,VALID,0,
2012-08-15, 01:37:05,VALID,1008.72,VALID,0,VALID,104,VALID,0,VALID,22.4277,VALID,57,VALID,0,
2012-08-15, 01:38:05,VALID,1008.71,VALID,0,VALID,104,VALID,0,VALID,22.4277,VALID,57,VALID,0,
2012-08-15, 01:39:05,VALID,1008.76,VALID,0,VALID,104,VALID,0,VALID,22.4472,VALID,57,VALID,0,
2012-08-15, 01:40:05,VALID,1008.72,VALID,0,VALID,104,VALID,0,VALID,22.4277,VALID,57,VALID,0,
2012-08-15, 01:41:05,VALID,1008.7,VALID,0,VALID,104,VALID,0,VALID,22.4082,VALID,57,VALID,0,
2012-08-15, 01:42:05,VALID,1008.69,VALID,0,VALID,104,VALID,0,VALID,22.4277,VALID,57,VALID,0,
2012-08-15, 01:43:05,VALID,1008.69,VALID,0,VALID,104,VALID,0,VALID,22.4082,VALID,57,VALID,0,
2012-08-15, 01:44:05,VALID,1008.7,VALID,0,VALID,104,VALID,0,VALID,22.3904,VALID,57,VALID,0,
2012-08-15, 01:45:05,VALID,1008.72,VALID,0,VALID,104,VALID,0,VALID,22.3887,VALID,57,VALID,0,
2012-08-15, 01:46:05,VALID,1008.72,VALID,0,VALID,104,VALID,0,VALID,22.3693,VALID,57,VALID,0,
2012-08-15, 01:47:05,VALID,1008.73,VALID,0,VALID,104,VALID,0,VALID,22.3498,VALID,57,VALID,0,
2012-08-15, 01:48:05,VALID,1008.71,VALID,0,VALID,104,VALID,0,VALID,22.371,VALID,57,VALID,0,
2012-08-15, 01:49:05,VALID,1008.73,VALID,0,VALID,104,VALID,0,VALID,22.3515,VALID,57,VALID,0,
2012-08-15, 01:50:05,VALID,1008.72,VALID,0,VALID,104,VALID,0,VALID,22.3515,VALID,57,VALID,0,
2012-08-15, 01:51:05,VALID,1008.69,VALID,0,VALID,104,VALID,0,VALID,22.3303,VALID,57,VALID,0,
2012-08-15, 01:52:05,VALID,1008.68,VALID,0,VALID,104,VALID,0,VALID,22.332,VALID,57,VALID,0,
2012-08-15, 01:53:05,VALID,1008.7,VALID,0,VALID,104,VALID,0,VALID,22.2914,VALID,57,VALID,0,
2012-08-15, 01:54:05,VALID,1008.68,VALID,0,VALID,104,VALID,0,VALID,22.2736,VALID,57,VALID,0,
2012-08-15, 01:55:05,VALID,1008.67,VALID,0,VALID,104,VALID,0,VALID,22.2719,VALID,57,VALID,0,
2012-08-15, 01:56:05,VALID,1008.69,VALID,0,VALID,104,VALID,0,VALID,22.2524,VALID,57,VALID,0,
2012-08-15, 01:57:05,VALID,1008.68,VALID,0,VALID,104,VALID,0,VALID,22.2134,VALID,57,VALID,0,
2012-08-15, 01:58:05,VALID,1008.67,VALID,0,VALID,104,VALID,0,VALID,22.2134,VALID,57,VALID,0,
2012-08-15, 01:59:05,VALID,1008.65,VALID,0,VALID,104,VALID,0,VALID,22.194,VALID,57,VALID,0,
2012-08-15, 02:00:05,VALID,1008.68,VALID,0,VALID,104,VALID,0,VALID,22.1745,VALID,57,VALID,0,
2012-08-15, 02:01:05,VALID,1008.7,VALID,0,VALID,104,VALID,0,VALID,22.1745,VALID,57,VALID,0,
2012-08-15, 02:02:05,VALID,1008.67,VALID,0,VALID,104,VALID,0,VALID,22.155,VALID,57,VALID,0,
2012-08-15, 02:03:05,VALID,1008.7,VALID,0,VALID,104,VALID,0,VALID,22.1567,VALID,57,VALID,0,
2012-08-15, 02:04:05,VALID,1008.69,VALID,0,VALID,104,VALID,0.112112,VALID,22.1745,VALID,57,VALID,0,
2012-08-15, 02:05:05,VALID,1008.68,VALID,0,VALID,104,VALID,0,VALID,22.1745,VALID,57,VALID,0,
2012-08-15, 02:06:05,VALID,1008.67,VALID,0,VALID,104,VALID,0,VALID,22.1745,VALID,57,VALID,0,
2012-08-15, 02:07:05,VALID,1008.68,VALID,0,VALID,104,VALID,0,VALID,22.1533,VALID,57,VALID,0,
2012-08-15, 02:08:05,VALID,1008.66,VALID,0,VALID,104,VALID,0,VALID,22.155,VALID,57,VALID,0,
2012-08-15, 02:09:05,VALID,1008.63,VALID,0,VALID,104,VALID,0,VALID,22.1355,VALID,57,VALID,0,
2012-08-15, 02:10:05,VALID,1008.62,VALID,0,VALID,104,VALID,0,VALID,22.1161,VALID,57,VALID,0,
2012-08-15, 02:11:05,VALID,1008.64,VALID,0,VALID,104,VALID,0,VALID,22.1355,VALID,57,VALID,0,
2012-08-15, 02:12:05,VALID,1008.62,VALID,0,VALID,104,VALID,0,VALID,22.155,VALID,57,VALID,0,
2012-08-15, 02:13:05,VALID,1008.6,VALID,0,VALID,104,VALID,0,VALID,22.1567,VALID,57,VALID,0,
2012-08-15, 02:14:05,VALID,1008.61,VALID,0,VALID,104,VALID,0,VALID,22.0966,VALID,57,VALID,0,
2012-08-15, 02:15:05,VALID,1008.58,VALID,0,VALID,104,VALID,0,VALID,22.0771,VALID,57,VALID,0,
2012-08-15, 02:16:05,VALID,1008.59,VALID,0,VALID,104,VALID,0,VALID,22.0576,VALID,57,VALID,0,
2012-08-15, 02:17:05,VALID,1008.61,VALID,0,VALID,104,VALID,0,VALID,22.0788,VALID,57,VALID,0,
2012-08-15, 02:18:05,VALID,1008.6,VALID,0,VALID,104,VALID,0,VALID,22.0576,VALID,57,VALID,0,
2012-08-15, 02:19:05,VALID,1008.62,VALID,0,VALID,104,VALID,0,VALID,22.0576,VALID,57,VALID,0,
2012-08-15, 02:20:05,VALID,1008.63,VALID,0,VALID,104,VALID,0,VALID,22.0771,VALID,57,VALID,0,
2012-08-15, 02:21:05,VALID,1008.62,VALID,0,VALID,104,VALID,0,VALID,22.1745,VALID,57,VALID,0,
2012-08-15, 02:22:05,VALID,1008.6,VALID,0,VALID,104,VALID,0,VALID,22.1745,VALID,57,VALID,0,
2012-08-15, 02:23:05,VALID,1008.57,VALID,0,VALID,104,VALID,0,VALID,22.1745,VALID,57,VALID,0,
2012-08-15, 02:24:05,VALID,1008.6,VALID,0,VALID,104,VALID,0,VALID,22.194,VALID,57,VALID,0,
2012-08-15, 02:25:05,VALID,1008.6,VALID,0,VALID,104,VALID,0,VALID,22.2134,VALID,57,VALID,0,
2012-08-15, 02:26:05,VALID,1008.6,VALID,0,VALID,104,VALID,0,VALID,22.194,VALID,57,VALID,0,
2012-08-15, 02:27:05,VALID,1008.6,VALID,0,VALID,104,VALID,0,VALID,22.155,VALID,57,VALID,0,
2012-08-15, 02:28:04,VALID,1008.56,VALID,0,VALID,104,VALID,0,VALID,22.1355,VALID,57,VALID,0,
2012-08-15, 02:29:04,VALID,1008.53,VALID,0,VALID,104,VALID,0,VALID,22.1745,VALID,57,VALID,0,
2012-08-15, 02:30:04,VALID,1008.59,VALID,0,VALID,104,VALID,0,VALID,22.194,VALID,57,VALID,0,
2012-08-15, 02:31:04,VALID,1008.55,VALID,0,VALID,104,VALID,0,VALID,22.2134,VALID,57,VALID,0,
2012-08-15, 02:32:04,VALID,1008.59,VALID,0,VALID,104,VALID,0,VALID,22.2134,VALID,57,VALID,0,
2012-08-15, 02:33:04,VALID,1008.55,VALID,0,VALID,104,VALID,0,VALID,22.194,VALID,57,VALID,0,
2012-08-15, 02:34:04,VALID,1008.57,VALID,0,VALID,104,VALID,0,VALID,22.2134,VALID,57,VALID,0,
2012-08-15, 02:35:04,VALID,1008.56,VALID,0,VALID,104,VALID,0,VALID,22.2134,VALID,57,VALID,0,
2012-08-15, 02:36:04,VALID,1008.54,VALID,0,VALID,104,VALID,0,VALID,22.2134,VALID,57,VALID,0,
2012-08-15, 02:37:04,VALID,1008.54,VALID,0,VALID,104,VALID,0,VALID,22.2329,VALID,57,VALID,0,
2012-08-15, 02:38:04,VALID,1008.52,VALID,0,VALID,104,VALID,0,VALID,22.2134,VALID,57,VALID,0,
2012-08-15, 02:39:04,VALID,1008.52,VALID,0,VALID,104,VALID,0.112112,VALID,22.194,VALID,57,VALID,0,
2012-08-15, 02:40:04,VALID,1008.52,VALID,0,VALID,104,VALID,0,VALID,22.194,VALID,57,VALID,0,
2012-08-15, 02:41:04,VALID,1008.54,VALID,0,VALID,104,VALID,0,VALID,22.2134,VALID,57,VALID,0,
2012-08-15, 02:42:04,VALID,1008.52,VALID,0,VALID,104,VALID,0,VALID,22.2134,VALID,57,VALID,0,
2012-08-15, 02:43:04,VALID,1008.52,VALID,0,VALID,104,VALID,0,VALID,22.2329,VALID,57,VALID,0,
2012-08-15, 02:44:04,VALID,1008.5,VALID,0,VALID,104,VALID,0,VALID,22.2134,VALID,57,VALID,0,
2012-08-15, 02:45:04,VALID,1008.49,VALID,0,VALID,104,VALID,0,VALID,22.194,VALID,57,VALID,0,
2012-08-15, 02:46:04,VALID,1008.47,VALID,0,VALID,104,VALID,0,VALID,22.2151,VALID,57,VALID,0,
2012-08-15, 02:47:04,VALID,1008.44,VALID,0,VALID,104,VALID,0,VALID,22.2134,VALID,57,VALID,0,
2012-08-15, 02:48:04,VALID,1008.42,VALID,0,VALID,104,VALID,0,VALID,22.2346,VALID,57,VALID,0,
2012-08-15, 02:49:04,VALID,1008.4,VALID,0,VALID,104,VALID,0,VALID,22.2329,VALID,57,VALID,0,
2012-08-15, 02:50:04,VALID,1008.38,VALID,0,VALID,104,VALID,0,VALID,22.2134,VALID,57,VALID,0,
2012-08-15, 02:51:04,VALID,1008.34,VALID,0,VALID,104,VALID,0,VALID,22.2134,VALID,57,VALID,0,
2012-08-15, 02:52:04,VALID,1008.32,VALID,0,VALID,104,VALID,0,VALID,22.194,VALID,57,VALID,0,
2012-08-15, 02:53:04,VALID,1008.32,VALID,0,VALID,104,VALID,0,VALID,22.194,VALID,57,VALID,0,
2012-08-15, 02:54:04,VALID,1008.34,VALID,0,VALID,104,VALID,0,VALID,22.1728,VALID,57,VALID,0,
2012-08-15, 02:55:04,VALID,1008.32,VALID,0,VALID,104,VALID,0,VALID,22.1745,VALID,57,VALID,0,
2012-08-15, 02:56:04,VALID,1008.35,VALID,0,VALID,104,VALID,0,VALID,22.155,VALID,57,VALID,0,
2012-08-15, 02:57:04,VALID,1008.36,VALID,0,VALID,104,VALID,0,VALID,22.1355,VALID,57,VALID,0,
2012-08-15, 02:58:04,VALID,1008.36,VALID,0,VALID,104,VALID,0,VALID,22.1161,VALID,57,VALID,0,
2012-08-15, 02:59:04,VALID,1008.38,VALID,0,VALID,104,VALID,0,VALID,22.0966,VALID,57,VALID,0,
2012-08-15, 03:00:04,VALID,1008.38,VALID,0,VALID,104,VALID,0,VALID,22.0771,VALID,57,VALID,0,
2012-08-15, 03:01:04,VALID,1008.41,VALID,0,VALID,104,VALID,0,VALID,22.0382,VALID,57,VALID,0,
2012-08-15, 03:02:04,VALID,1008.41,VALID,0,VALID,104,VALID,0,VALID,22.017,VALID,58,VALID,0,
2012-08-15, 03:03:04,VALID,1008.45,VALID,0,VALID,104,VALID,0,VALID,22.0382,VALID,58,VALID,0,
2012-08-15, 03:04:04,VALID,1008.44,VALID,0,VALID,104,VALID,0,VALID,22.0382,VALID,59,VALID,0,
2012-08-15, 03:05:04,VALID,1008.45,VALID,0,VALID,104,VALID,0,VALID,22.0966,VALID,107,VALID,0.36875,
2012-08-15, 03:06:04,VALID,1008.45,VALID,0,VALID,104,VALID,0,VALID,22.1161,VALID,107,VALID,0,
2012-08-15, 03:07:04,VALID,1008.45,VALID,0,VALID,104,VALID,0,VALID,22.1355,VALID,107,VALID,0,
2012-08-15, 03:08:04,VALID,1008.45,VALID,0,VALID,104,VALID,0,VALID,22.194,VALID,125,VALID,0.758594,
2012-08-15, 03:09:04,VALID,1008.45,VALID,0,VALID,104,VALID,0,VALID,22.2134,VALID,130,VALID,0,
2012-08-15, 03:10:04,VALID,1008.44,VALID,0,VALID,104,VALID,0,VALID,22.2329,VALID,130,VALID,0,
2012-08-15, 03:11:04,VALID,1008.41,VALID,0,VALID,104,VALID,0,VALID,22.2524,VALID,130,VALID,0,
2012-08-15, 03:12:04,VALID,1008.44,VALID,0,VALID,104,VALID,0,VALID,22.2524,VALID,130,VALID,0,
2012-08-15, 03:13:04,VALID,1008.42,VALID,0,VALID,104,VALID,0,VALID,22.2719,VALID,130,VALID,0,
2012-08-15, 03:14:04,VALID,1008.42,VALID,0,VALID,104,VALID,0,VALID,22.2719,VALID,130,VALID,0,
2012-08-15, 03:15:04,VALID,1008.42,VALID,0,VALID,104,VALID,0,VALID,22.2524,VALID,130,VALID,0,
2012-08-15, 03:16:04,VALID,1008.45,VALID,0,VALID,104,VALID,0,VALID,22.2719,VALID,130,VALID,0,
2012-08-15, 03:17:04,VALID,1008.42,VALID,0,VALID,104,VALID,0,VALID,22.2719,VALID,130,VALID,0,
2012-08-15, 03:18:04,VALID,1008.43,VALID,0,VALID,104,VALID,0,VALID,22.3303,VALID,29,VALID,0,
2012-08-15, 03:19:04,VALID,1008.43,VALID,0,VALID,104,VALID,0,VALID,22.3693,VALID,29,VALID,0,
2012-08-15, 03:20:04,VALID,1008.42,VALID,0,VALID,104,VALID,0,VALID,22.3693,VALID,29,VALID,0,
2012-08-15, 03:21:04,VALID,1008.41,VALID,0,VALID,104,VALID,0,VALID,22.4082,VALID,29,VALID,0,
2012-08-15, 03:22:04,VALID,1008.4,VALID,0,VALID,104,VALID,0,VALID,22.4082,VALID,29,VALID,0,
2012-08-15, 03:23:04,VALID,1008.44,VALID,0,VALID,104,VALID,0,VALID,22.4082,VALID,29,VALID,0,
2012-08-15, 03:24:04,VALID,1008.42,VALID,0,VALID,104,VALID,0,VALID,22.3887,VALID,29,VALID,0,
2012-08-15, 03:25:04,VALID,1008.45,VALID,0,VALID,104,VALID,0,VALID,22.3303,VALID,29,VALID,0,
2012-08-15, 03:26:04,VALID,1008.44,VALID,0,VALID,104,VALID,0,VALID,22.2914,VALID,29,VALID,0,
2012-08-15, 03:27:04,VALID,1008.45,VALID,0,VALID,104,VALID,0,VALID,22.2524,VALID,29,VALID,0,
2012-08-15, 03:28:04,VALID,1008.44,VALID,0,VALID,104,VALID,0,VALID,22.2134,VALID,29,VALID,0,
2012-08-15, 03:29:04,VALID,1008.46,VALID,0,VALID,104,VALID,0,VALID,22.194,VALID,29,VALID,0,
2012-08-15, 03:30:04,VALID,1008.46,VALID,0,VALID,104,VALID,0,VALID,22.1957,VALID,29,VALID,0,
2012-08-15, 03:31:04,VALID,1008.48,VALID,0,VALID,104,VALID,0,VALID,22.1161,VALID,29,VALID,0,
2012-08-15, 03:32:04,VALID,1008.47,VALID,0,VALID,104,VALID,0,VALID,22.0771,VALID,29,VALID,0,
2012-08-15, 03:33:04,VALID,1008.48,VALID,0,VALID,104,VALID,0,VALID,22.0788,VALID,29,VALID,0,
2012-08-15, 03:34:04,VALID,1008.5,VALID,0,VALID,104,VALID,0,VALID,22.0382,VALID,29,VALID,0,
2012-08-15, 03:35:04,VALID,1008.5,VALID,0,VALID,104,VALID,0,VALID,22.0187,VALID,29,VALID,0,
2012-08-15, 03:36:04,VALID,1008.53,VALID,0,VALID,104,VALID,0,VALID,21.9992,VALID,29,VALID,0,
2012-08-15, 03:37:04,VALID,1008.55,VALID,0,VALID,104,VALID,0,VALID,21.9781,VALID,29,VALID,0,
2012-08-15, 03:38:04,VALID,1008.55,VALID,0,VALID,104,VALID,0,VALID,22.0009,VALID,29,VALID,0,
2012-08-15, 03:39:04,VALID,1008.57,VALID,0,VALID,104,VALID,0,VALID,21.9992,VALID,29,VALID,0,
2012-08-15, 03:40:04,VALID,1008.56,VALID,0,VALID,104,VALID,0,VALID,22.0187,VALID,29,VALID,0,
2012-08-15, 03:41:04,VALID,1008.57,VALID,0,VALID,104,VALID,0,VALID,22.0398,VALID,29,VALID,0,
2012-08-15, 03:42:04,VALID,1008.54,VALID,0,VALID,104,VALID,0,VALID,22.0187,VALID,29,VALID,0,
2012-08-15, 03:43:04,VALID,1008.58,VALID,0,VALID,104,VALID,0,VALID,22.0382,VALID,29,VALID,0,
2012-08-15, 03:44:04,VALID,1008.57,VALID,0,VALID,104,VALID,0,VALID,22.0576,VALID,29,VALID,0,
2012-08-15, 03:45:04,VALID,1008.58,VALID,0,VALID,104,VALID,0,VALID,22.0382,VALID,29,VALID,0,
2012-08-15, 03:46:04,VALID,1008.56,VALID,0,VALID,104,VALID,0,VALID,22.1161,VALID,29,VALID,0,
2012-08-15, 03:47:04,VALID,1008.59,VALID,0,VALID,104,VALID,0,VALID,22.155,VALID,29,VALID,0,
2012-08-15, 03:48:04,VALID,1008.59,VALID,0,VALID,104,VALID,0,VALID,22.155,VALID,29,VALID,0,
2012-08-15, 03:49:04,VALID,1008.56,VALID,0,VALID,104,VALID,0,VALID,22.2134,VALID,29,VALID,0,
2012-08-15, 03:50:04,VALID,1008.57,VALID,0,VALID,104,VALID,0,VALID,22.2329,VALID,29,VALID,0,
2012-08-15, 03:51:04,VALID,1008.6,VALID,0,VALID,104,VALID,0,VALID,22.2719,VALID,29,VALID,0,
2012-08-15, 03:52:04,VALID,1008.58,VALID,0,VALID,104,VALID,0,VALID,22.2524,VALID,29,VALID,0,
2012-08-15, 03:53:04,VALID,1008.57,VALID,0,VALID,104,VALID,0,VALID,22.2524,VALID,29,VALID,0,
2012-08-15, 03:54:04,VALID,1008.55,VALID,0,VALID,104,VALID,0,VALID,22.2134,VALID,29,VALID,0,
2012-08-15, 03:55:04,VALID,1008.56,VALID,0,VALID,104,VALID,0,VALID,22.2329,VALID,29,VALID,0,
2012-08-15, 03:56:04,VALID,1008.58,VALID,0,VALID,104,VALID,0,VALID,22.2329,VALID,29,VALID,0,
2012-08-15, 03:57:04,VALID,1008.56,VALID,0,VALID,104,VALID,0,VALID,22.155,VALID,29,VALID,0,
2012-08-15, 03:58:04,VALID,1008.58,VALID,0,VALID,104,VALID,0,VALID,22.1177,VALID,29,VALID,0,
2012-08-15, 03:59:04,VALID,1008.55,VALID,0,VALID,104,VALID,0,VALID,22.0771,VALID,29,VALID,0,
2012-08-15, 04:00:04,VALID,1008.59,VALID,0,VALID,104,VALID,0.112112,VALID,22.0754,VALID,29,VALID,0,
2012-08-15, 04:01:04,VALID,1008.56,VALID,0,VALID,104,VALID,0.112112,VALID,22.0754,VALID,29,VALID,0,
2012-08-15, 04:02:04,VALID,1008.57,VALID,0,VALID,104,VALID,0.112112,VALID,22.017,VALID,29,VALID,0,
2012-08-15, 04:03:04,VALID,1008.59,VALID,0,VALID,104,VALID,0.112112,VALID,21.9781,VALID,29,VALID,0,
2012-08-15, 04:04:04,VALID,1008.59,VALID,0,VALID,104,VALID,0.112112,VALID,21.9196,VALID,29,VALID,0,
2012-08-15, 04:05:04,VALID,1008.63,VALID,0,VALID,104,VALID,0.112112,VALID,21.9002,VALID,29,VALID,0,
2012-08-15, 04:06:04,VALID,1008.66,VALID,0,VALID,104,VALID,0.224224,VALID,21.9196,VALID,29,VALID,0,
2012-08-15, 04:07:04,VALID,1008.67,VALID,0,VALID,104,VALID,0.224224,VALID,21.9391,VALID,29,VALID,0,
2012-08-15, 04:08:04,VALID,1008.67,VALID,0,VALID,104,VALID,0.224224,VALID,21.9391,VALID,29,VALID,0,
2012-08-15, 04:09:04,VALID,1008.68,VALID,0,VALID,104,VALID,0.224224,VALID,21.9586,VALID,29,VALID,0,